Back to catalog

LEMUR-2 PEGGY-2004

AliveScienceSSO
NORAD 68479·PAYLOAD·🇱🇺 Luxembourg

Launched Mar 30, 2026 from Vandenberg Space Force Base

Loading…

Next Passes (next 24 hours)

TLE

FreshSource: Space-Track

Epoch: Sep 14, 2026, 14:49 UTC

1 68479U 26067BR  26257.61752034  .00003505  00000-0  33874-3 0  9996
2 68479  97.7635 214.6776 0001637  35.9193 324.2137 14.93456143 25079

Track LEMUR-2 PEGGY-2004 in real time with AllMySat

Download on the App Store